When you browse on this site, cookies collect data to enhance your experience and personalize the content and advertising you see.
Visit our Privacy Policy to learn more. By continuing to use the site, you agree to this use of cookies and data.
  • In Hungary
  • List of Countries
  • For 7 days
  • Water Temperature
  • Weather Map
  • News
  • Weather Widgets
  • user-avatar
    Login

    Hourly Weather Ernestowo

    Today, 13 November, Wednesday

    Time Temperature Precipitation Wind Pressure Humidity
    00:00 +7°C° 0.5 mm 1 mps 748 mmHg 95%
    01:00 +7°C° 0.5 mm 1 mps 748 mmHg 96%
    02:00 +7°C° 0.2 mm 1 mps 747 mmHg 96%
    03:00 +7°C° 0.2 mm 2 mps 747 mmHg 96%
    04:00 +7°C° 0.2 mm 2 mps 746 mmHg 97%
    05:00 +7°C° 0 mm 2 mps 746 mmHg 97%
    06:00 +7°C° 0 mm 2 mps 746 mmHg 97%
    07:00 +7°C° 0 mm 2 mps 745 mmHg 97%
    08:00 +7°C° 0.1 mm 2 mps 745 mmHg 96%
    09:00 +8°C° 0.1 mm 2 mps 745 mmHg 95%
    10:00 +8°C° 0.1 mm 2 mps 745 mmHg 94%
    11:00 +9°C° 1.3 mm 1 mps 744 mmHg 95%
    12:00 +9°C° 1.3 mm 1 mps 744 mmHg 97%
    13:00 +9°C° 1.3 mm 1 mps 743 mmHg 98%
    14:00 +9°C° 1.9 mm 1 mps 743 mmHg 98%
    15:00 +9°C° 1.9 mm 1 mps 743 mmHg 98%
    16:00 +9°C° 1.9 mm 1 mps 743 mmHg 98%
    17:00 +9°C° 0.2 mm 1 mps 743 mmHg 98%
    18:00 +9°C° 0.2 mm 1 mps 744 mmHg 97%
    19:00 +9°C° 0.2 mm 1 mps 744 mmHg 97%
    20:00 +9°C° 0.1 mm 1 mps 744 mmHg 97%
    21:00 +9°C° 0.1 mm 1 mps 744 mmHg 97%
    22:00 +9°C° 0.1 mm 1 mps 744 mmHg 97%
    23:00 +9°C° 1.4 mm 1 mps 744 mmHg 97%

    Tomorrow, 14 November, Thursday

    Time Temperature Precipitation Wind Pressure Humidity
    00:00 +8°C° 1.4 mm 2 mps 744 mmHg 97%
    01:00 +8°C° 1.4 mm 2 mps 744 mmHg 97%
    02:00 +7°C° 0.9 mm 2 mps 744 mmHg 96%
    03:00 +7°C° 0.9 mm 2 mps 744 mmHg 95%
    04:00 +7°C° 0.9 mm 3 mps 744 mmHg 95%
    05:00 +7°C° 0.3 mm 3 mps 745 mmHg 93%
    06:00 +5°C° 0.3 mm 3 mps 746 mmHg 91%
    07:00 +5°C° 0.3 mm 4 mps 747 mmHg 90%
    08:00 +5°C° 0 mm 3 mps 748 mmHg 88%
    09:00 +5°C° 0 mm 3 mps 749 mmHg 87%
    10:00 +6°C° 0 mm 2 mps 750 mmHg 86%
    11:00 +6°C° 0 mm 2 mps 750 mmHg 83%
    12:00 +7°C° 0 mm 2 mps 751 mmHg 80%
    13:00 +7°C° 0 mm 2 mps 751 mmHg 77%
    14:00 +7°C° 0 mm 2 mps 752 mmHg 77%
    15:00 +7°C° 0 mm 1 mps 752 mmHg 77%
    16:00 +7°C° 0 mm 1 mps 752 mmHg 77%
    17:00 +7°C° 0 mm 1 mps 753 mmHg 77%
    18:00 +7°C° 0 mm 1 mps 753 mmHg 77%
    19:00 +7°C° 0 mm 1 mps 753 mmHg 77%
    20:00 +6°C° 0 mm 1 mps 753 mmHg 79%
    21:00 +6°C° 0 mm 1 mps 754 mmHg 82%
    22:00 +4°C° 0 mm 2 mps 754 mmHg 85%
    23:00 +4°C° 0 mm 2 mps 754 mmHg 87%

    Day after tomorrow, 15 November, Friday

    Time Temperature Precipitation Wind Pressure Humidity
    00:00 +4°C° 0 mm 2 mps 754 mmHg 88%
    01:00 +3°C° 0 mm 3 mps 754 mmHg 90%
    02:00 +3°C° 0 mm 3 mps 753 mmHg 90%
    03:00 +3°C° 0 mm 4 mps 753 mmHg 90%
    04:00 +3°C° 0 mm 4 mps 753 mmHg 90%
    05:00 +3°C° 0 mm 4 mps 753 mmHg 92%
    06:00 +4°C° 0 mm 4 mps 753 mmHg 93%
    07:00 +4°C° 0 mm 4 mps 753 mmHg 95%
    08:00 +8°C° 0 mm 4 mps 752 mmHg 95%
    09:00 +10°C° 0 mm 4 mps 752 mmHg 93%
    10:00 +10°C° 0 mm 4 mps 752 mmHg 91%
    11:00 +10°C° 0 mm 5 mps 752 mmHg 87%
    12:00 +12°C° 0 mm 5 mps 751 mmHg 83%
    13:00 +13°C° 0 mm 5 mps 751 mmHg 79%
    14:00 +12°C° 0 mm 5 mps 751 mmHg 81%
    15:00 +12°C° 0 mm 5 mps 751 mmHg 83%
    16:00 +10°C° 0 mm 5 mps 751 mmHg 84%
    17:00 +10°C° 0 mm 5 mps 751 mmHg 85%
    18:00 +10°C° 0 mm 5 mps 751 mmHg 86%
    19:00 +10°C° 0 mm 5 mps 751 mmHg 87%
    20:00 +10°C° 0 mm 5 mps 751 mmHg 88%
    21:00 +10°C° 0 mm 5 mps 751 mmHg 89%
    22:00 +9°C° 0 mm 5 mps 751 mmHg 90%
    23:00 +9°C° 0 mm 5 mps 751 mmHg 91%

    16 November, Saturday

    Time Temperature Precipitation Wind Pressure Humidity
    00:00 +9°C° 0 mm 5 mps 751 mmHg 91%
    01:00 +10°C° 0 mm 4 mps 751 mmHg 92%
    02:00 +9°C° 0 mm 5 mps 751 mmHg 92%
    03:00 +8°C° 0 mm 5 mps 751 mmHg 91%
    04:00 +8°C° 0 mm 5 mps 751 mmHg 91%
    05:00 +8°C° 0 mm 5 mps 751 mmHg 90%
    06:00 +8°C° 0 mm 5 mps 751 mmHg 89%
    07:00 +8°C° 0 mm 6 mps 751 mmHg 88%
    08:00 +9°C° 0 mm 6 mps 751 mmHg 83%
    09:00 +10°C° 0 mm 6 mps 751 mmHg 78%
    10:00 +11°C° 0 mm 6 mps 752 mmHg 74%
    11:00 +13°C° 0 mm 6 mps 752 mmHg 72%
    12:00 +13°C° 0 mm 6 mps 752 mmHg 71%
    13:00 +14°C° 0 mm 5 mps 753 mmHg 70%
    14:00 +13°C° 0 mm 4 mps 753 mmHg 72%
    15:00 +12°C° 0 mm 3 mps 754 mmHg 74%
    16:00 +12°C° 0 mm 2 mps 754 mmHg 76%
    17:00 +10°C° 0 mm 2 mps 755 mmHg 78%
    18:00 +9°C° 0 mm 2 mps 755 mmHg 79%
    19:00 +9°C° 0 mm 1 mps 756 mmHg 81%
    20:00 +9°C° 0 mm 1 mps 756 mmHg 82%
    21:00 +9°C° 0 mm 1 mps 757 mmHg 83%
    22:00 +8°C° 0 mm 1 mps 757 mmHg 84%
    23:00 +8°C° 0 mm 1 mps 757 mmHg 85%

    17 November, Sunday

    Time Temperature Precipitation Wind Pressure Humidity
    00:00 +7°C° 0 mm 2 mps 757 mmHg 85%
    01:00 +7°C° 0 mm 2 mps 757 mmHg 86%
    02:00 +7°C° 0 mm 2 mps 757 mmHg 87%
    03:00 +7°C° 0 mm 3 mps 756 mmHg 89%
    04:00 +8°C° 0 mm 3 mps 756 mmHg 90%
    05:00 +8°C° 0 mm 3 mps 756 mmHg 91%
    06:00 +8°C° 0 mm 3 mps 755 mmHg 91%
    07:00 +7°C° 0 mm 4 mps 755 mmHg 92%
    08:00 +8°C° 0 mm 4 mps 755 mmHg 88%
    09:00 +10°C° 0 mm 4 mps 755 mmHg 85%
    10:00 +10°C° 0 mm 4 mps 754 mmHg 81%
    11:00 +10°C° 0 mm 5 mps 754 mmHg 79%
    12:00 +10°C° 0 mm 5 mps 753 mmHg 78%
    13:00 +10°C° 0 mm 5 mps 753 mmHg 76%
    14:00 +9°C° 0 mm 5 mps 753 mmHg 78%
    15:00 +10°C° 0 mm 4 mps 753 mmHg 80%
    16:00 +8°C° 0 mm 4 mps 753 mmHg 82%
    17:00 +8°C° 0 mm 4 mps 753 mmHg 83%
    18:00 +7°C° 0 mm 4 mps 753 mmHg 84%
    19:00 +7°C° 0 mm 4 mps 753 mmHg 84%
    20:00 +7°C° 0 mm 4 mps 753 mmHg 85%
    21:00 +6°C° 0 mm 4 mps 753 mmHg 86%
    22:00 +6°C° 0 mm 4 mps 753 mmHg 87%
    23:00 +6°C° 0 mm 4 mps 752 mmHg 87%

    18 November, Monday

    Time Temperature Precipitation Wind Pressure Humidity
    00:00 +5°C° 0 mm 4 mps 752 mmHg 87%
    01:00 +5°C° 0 mm 4 mps 752 mmHg 87%
    02:00 +5°C° 0 mm 4 mps 752 mmHg 87%
    03:00 +5°C° 0 mm 4 mps 752 mmHg 87%
    04:00 +5°C° 0 mm 4 mps 751 mmHg 87%
    05:00 +4°C° 0 mm 4 mps 751 mmHg 88%
    06:00 +4°C° 0 mm 4 mps 752 mmHg 90%
    07:00 +4°C° 0 mm 4 mps 752 mmHg 91%
    08:00 +4°C° 0 mm 4 mps 752 mmHg 89%
    09:00 +5°C° 0 mm 4 mps 752 mmHg 86%
    10:00 +6°C° 0 mm 4 mps 752 mmHg 84%
    11:00 +7°C° 0 mm 4 mps 752 mmHg 81%
    12:00 +8°C° 0 mm 4 mps 752 mmHg 78%
    13:00 +8°C° 0 mm 4 mps 752 mmHg 75%
    14:00 +8°C° 0 mm 4 mps 752 mmHg 78%
    15:00 +9°C° 0 mm 3 mps 752 mmHg 80%
    16:00 +8°C° 0 mm 3 mps 752 mmHg 83%
    17:00 +8°C° 0 mm 3 mps 752 mmHg 83%
    18:00 +8°C° 0 mm 3 mps 752 mmHg 84%
    19:00 +8°C° 0 mm 3 mps 752 mmHg 84%
    20:00 +7°C° 0 mm 4 mps 753 mmHg 83%
    21:00 +8°C° 0 mm 4 mps 753 mmHg 82%
    22:00 +8°C° 0 mm 4 mps 753 mmHg 81%
    23:00 +8°C° 0 mm 4 mps 753 mmHg 83%
    Show more